sat.trackr.live / text

‹ back to catalog

COSMOS 2416 (RODNIK-S 1)

NORAD 28908 · 2005-048A

PAYLOAD ACTIVE UNKNOWN

§ Identity

Operator
Country
CIS
Launch date
2005-12-21
Launch site
PLMSC
Launch vehicle
Mass (kg)
RCS (m²)
1.53

External: N2YO · Heavens-Above · Gunter

§ Orbital elements

Epoch: 2026-09-19T22:20:50.742240Z

Period
114.69 min
Inclination
82.4640°
Eccentricity
0.0007221
Mean motion
12.55603265 rev/d
Perigee alt
1,435.5 km
Apogee alt
1,446.8 km
Semi-major
7,819.3 km
B*
1.1557e-4
RAAN
247.0579°
Arg perigee
327.2301°
Mean anomaly
59.7996°
Rev number
95,079

§ Raw data

COSMOS 2416 (RODNIK-S 1)1 28908U 05048A   26262.93114285  .00000029  00000+0  11557-3 0  99972 28908  82.4640 247.0579 0007221 327.2301  59.7996 12.55603265950797

JSON: /api/v1/satellites/28908 · /tle

For live sub-satellite position, see the globe view (requires WebGL).

§ Visibility from observer

Set your observer location to see the next 7 days of passes ≥ 10°. The values pass through the URL so the page stays shareable.

No JS? Fill the form by hand. The geolocation button needs JavaScript.